Location: Balsareny
(41.8670°N, 1.8830°E)
Time: 02:18:59
(UTC+01:00)

Envisat - Visible Passes

Search period start: 01 December 2021 00:00
Search period end: 11 December 2021 00:00
Orbit: 764 x 766 km, 98.2° (Epoch: 30 November)

Date Brightness Start Highest point End Pass type
(mag) Time Alt. Az. Time Alt. Az. Time Alt. Az.
01 Dec 4.8 05:07:24 10° NE 05:11:48 29° E 05:16:10 10° SSE visible
01 Dec 3.6 06:46:16 10° N 06:50:48 34° WNW 06:55:19 10° SW visible
01 Dec 5.6 18:01:47 10° SSW 18:05:52 24° W 18:10:00 10° NW visible
02 Dec 5.9 04:32:16 10° ENE 04:34:35 13° E 04:36:52 10° ESE visible
02 Dec 2.8 06:09:02 10° N 06:14:07 73° WNW 06:19:09 10° SSW visible
03 Dec 3.8 05:32:17 10° NNE 05:37:14 50° E 05:42:09 10° S visible
03 Dec 4.2 07:12:11 10° NNW 07:15:52 21° WNW 07:19:32 10° WSW visible
03 Dec 6.1 18:28:50 10° WSW 18:31:26 14° W 18:34:03 10° WNW visible
04 Dec 5.2 04:56:09 10° NE 05:00:09 23° E 05:04:08 10° SE visible
04 Dec 3.3 06:34:33 10° N 06:39:19 42° WNW 06:44:05 10° SW visible
04 Dec 5.2 17:49:46 10° SSW 17:54:14 31° W 17:58:44 10° NNW visible
05 Dec 2.9 05:57:28 10° NNE 06:02:35 88° ESE 06:07:39 10° SSW visible
06 Dec 4.3 05:20:52 10° NNE 05:25:38 39° E 05:30:22 10° SSE visible
06 Dec 3.9 07:00:18 10° NNW 07:04:26 25° WNW 07:08:31 10° WSW visible
06 Dec 5.9 18:16:21 10° SW 18:19:45 18° W 18:23:11 10° NW visible
07 Dec 5.5 04:45:03 10° NE 04:48:30 18° E 04:51:55 10° SE visible
07 Dec 3.0 06:22:52 10° N 06:27:49 53° WNW 06:32:44 10° SSW visible
08 Dec 3.2 05:45:56 10° NNE 05:51:01 70° ESE 05:56:04 10° S visible
08 Dec 4.5 07:26:32 10° NNW 07:29:26 15° WNW 07:32:20 10° W visible
09 Dec 4.7 05:09:30 10° NNE 05:14:01 31° E 05:18:29 10° SSE visible
09 Dec 3.6 06:48:31 10° N 06:52:58 31° WNW 06:57:24 10° SW visible
09 Dec 5.7 18:04:07 10° SW 18:08:05 23° W 18:12:05 10° NW visible
10 Dec 5.8 04:34:11 10° ENE 04:36:48 14° E 04:39:26 10° ESE visible
10 Dec 2.9 06:11:15 10° N 06:16:18 68° WNW 06:21:20 10° SSW visible
